World > North America > United States > Ohio

Riverside, Ohio Regional Weather

Lat: 39.78N, Lon: 84.12W
Wx Zone: OHZ061Web Search

Our weather pages are very print friendly and they make great conversation starters.

Feedback


°F Click to change Riverside hourly weather to Imperial units.Click to change Riverside hourly weather to Metric units. °C
Riverside Weather Map
UTC Time: 5/12/2021, 15:24
Your Time:

Riverside, OH Regional Weather

Expires:202105121600;;003492
ASUS41 KCLE 121512
RWRCLE
OHIO REGIONAL WEATHER ROUNDUP
NATIONAL WEATHER SERVICE WILMINGTON, OH
1100 AM EDT WED MAY 12 2021

NOTE: "FAIR" INDICATES FEW OR NO CLOUDS BELOW 12,000 FEET WITH NO
SIGNIFICANT WEATHER AND/OR OBSTRUCTIONS TO VISIBILITY.


OHZ042-051>053-060>062-070>072-077>081-121600-
  SOUTHWEST OHIO
  
CITY           SKY/WX    TMP DP  RH WIND       PRES   REMARKS
CINC-COVINGTON FAIR      56  31  38 NE16G26   30.38F                  
CINC-LUNKEN    FAIR      56  35  45 E13       30.40F                  
HAMILTON       FAIR      56  34  43 E12G20    30.41F                  
DAYTON         FAIR      56  28  34 N17       30.41F                  
WRIGHT-PAT AFB FAIR      55  31  40 NE7G18    30.40F                  
DAYTON GENERAL FAIR      56  32  40 NE9       30.39F                  
WILMINGTON     FAIR      53  34  48 NE12G21   30.38F                  
$$


SKY/WX - Weather  TMP - Temperature  DP - Dew Point  RH - Relative Humidity
WIND - Wind Direction/Speed PRES - Barometric Pressure VSB - Visibility
WCI - Wind Chill Index E13G22 Wind - East Wind 13 mph/Gusts of 22 mph